レモン彗星

C/2018 DO4 ( Lemmon )

English version
Home page
Updated on October 10, 2020

---------------------------------------------------------------------

・ プロフィール

発見日 2018年2月25日
発見光度 20.6等
発見者 G. J. Leonard (Mount Lemmon Survey)

・ 写真集

・ 軌道要素

Epoch 2019 Aug. 25.0 TT = JDT 2458720.5
T 2019 Aug. 18.40499 TT                                 Rudenko
q   2.4059610            (2000.0)            P               Q
n   0.00749567     Peri.  175.97271     +0.25993980     +0.91236368
a  25.8580565      Node   251.13287     +0.87634464     -0.08534645
e   0.9069551      Incl.  160.47471     +0.40552604     -0.40038544
P 131
From 722 observations 2016 Apr. 5-2020 Aug. 12, mean residual 0".5.

・ 星図

・ 光度変化

        H = 13.5  G = 0.15                [    ,-325]  (              〜2018年 9月27日)
        m1 = 11.0 + 5 logΔ + 10.0 log r  [-325,    ]  (2018年 9月27日〜              )

---------------------------------------------------------------------

軌道要素はM.P.E.C. 2020-Q175に掲載されたものです。
星図はステラナビゲータ Ver.10 (アストロアーツ) で作成したものです。
光度グラフはComet for Windowsで作成したものです。

---------------------------------------------------------------------

Copyright(C) Seiichi Yoshida (comet@aerith.net). All rights reserved.